sat.trackr.live / text

‹ back to catalog

STARLINK-5004

NORAD 53923 · 2022-119AP

PAYLOAD ACTIVE UNKNOWN

§ Identity

Operator
Country
US
Launch date
2022-09-24
Launch site
AFETR
Launch vehicle
Mass (kg)
RCS (m²)

Purposes: comms

External: N2YO · Heavens-Above · Gunter

§ Orbital elements

Epoch: 2026-05-24T20:11:47.848992Z

Period
95.44 min
Inclination
53.2145°
Eccentricity
0.0001308
Mean motion
15.08840812 rev/d
Perigee alt
538.8 km
Apogee alt
540.6 km
Semi-major
6,917.9 km
B*
7.9424e-5
RAAN
332.0879°
Arg perigee
95.7104°
Mean anomaly
264.4038°
Rev number
20,332

§ Raw data

STARLINK-50041 53923U 22119AP  26144.84152603  .00000976  00000+0  79424-4 0  99942 53923  53.2145 332.0879 0001308  95.7104 264.4038 15.08840812203328

JSON: /api/v1/satellites/53923 · /tle

For live sub-satellite position, see the globe view (requires WebGL).

§ Visibility from observer

Set your observer location to see the next 7 days of passes ≥ 10°. The values pass through the URL so the page stays shareable.

No JS? Fill the form by hand. The geolocation button needs JavaScript.